Probability
7 12 21 24 22 21 20 19 17 13 10 8 6 4 2 1 0 0 0 0 0 0 0 0 0 0 0 0 0 0 0 0 0 0 0 0 0 0 0 0 0 0 0
11 15 22 26 25 22 19 16 14 11 8 6 4 3 3 2 1 0 0 0 0 0 0 0 0 0 0 0 0 0 0 0 0 0 0 0 0 0 0 0 0 0 0
14 17 23 28 29 25 18 13 11 10 7 5 4 3 3 3 3 1 0 0 0 0 0 0 0 0 0 0 0 0 0 0 0 0 0 0 0 0 0 0 0 0 0
15 17 21 26 28 24 17 12 11 10 9 8 7 5 4 3 2 1 0 0 0 0 0 0 0 0 0 0 0 0 0 0 0 0 0 0 0 0 0 0 0 0 0
15 16 18 21 22 19 15 12 10 9 9 10 9 8 5 2 1 0 0 0 0 0 0 0 0 0 0 0 0 0 0 0 0 0 0 0 0 0 0 0 0 0 0
14 15 15 16 16 15 14 12 9 6 8 10 10 8 6 2 0 0 0 0 0 0 0 0 0 0 0 0 0 0 0 0 0 0 0 0 0 0 0 0 0 0 0
11 12 13 13 13 13 11 10 8 6 7 9 9 8 6 3 1 0 0 0 0 0 0 0 0 0 0 0 0 0 0 0 0 0 0 0 0 0 0 0 0 0 0
8 9 10 11 11 10 8 6 7 7 7 8 9 9 8 5 2 1 0 0 0 0 0 0 0 1 0 0 0 0 0 0 0 0 0 0 0 0 0 0 0 0 0
5 6 8 9 9 7 5 4 5 7 7 7 8 9 8 5 3 1 0 0 0 0 0 0 0 0 0 0 0 0 0 0 0 0 0 0 0 0 0 0 0 0 0
4 4 6 7 7 6 4 3 3 4 5 6 7 8 6 4 3 1 0 0 0 0 0 0 0 0 0 0 0 0 0 0 0 0 0 0 1 1 0 0 0 0 0
3 4 5 6 6 6 4 2 2 3 4 5 6 6 4 3 2 1 0 0 0 0 0 0 0 0 0 0 0 0 0 0 0 0 1 1 2 2 1 1 0 0 0
2 3 4 5 6 6 4 2 1 2 4 6 6 5 3 1 1 0 0 0 0 0 0 0 0 0 0 1 1 0 0 0 0 1 2 2 2 2 2 1 0 0 0
2 2 3 4 6 6 4 2 1 2 3 5 6 5 3 1 1 0 0 0 1 1 1 1 1 1 1 2 2 1 0 0 0 1 2 2 1 1 1 1 0 0 0
1 2 2 3 5 5 3 2 2 2 1 2 4 4 3 3 2 1 1 1 2 2 2 2 2 2 3 3 2 1 0 0 0 0 1 1 0 0 0 0 0 0 0
0 1 1 1 3 3 3 3 3 2 1 1 2 3 3 3 2 2 2 2 3 3 3 3 2 2 2 2 1 1 0 0 0 0 0 0 0 0 0 0 0 0 0
0 0 1 1 1 2 4 4 4 3 2 2 2 3 3 2 1 1 1 2 3 3 2 1 1 1 1 1 0 0 0 0 0 0 0 0 0 0 0 0 0 0 0
1 1 2 2 1 2 3 4 4 3 2 2 2 2 2 1 0 0 0 1 1 2 1 0 0 0 0 0 0 0 0 0 0 0 0 0 0 0 0 0 0 0 0
1 1 2 3 2 1 2 2 2 2 2 2 2 1 1 0 0 0 0 0 0 0 0 0 0 0 0 0 0 0 0 0 0 0 0 0 0 0 0 0 0 0 0
1 1 2 2 1 1 1 1 0 1 1 1 1 1 0 0 0 0 0 0 0 0 0 0 0 0 0 0 0 0 0 0 0 0 0 0 0 0 0 0 0 0 0
0 0 1 1 0 0 0 0 0 1 1 1 0 0 0 0 0 1 1 1 1 0 0 0 0 0 0 0 0 0 0 0 0 0 0 0 0 0 0 0 0 0 0
0 0 1 1 0 0 0 0 0 1 1 1 0 0 0 0 1 2 2 2 1 0 0 0 0 0 0 0 0 0 0 0 0 0 0 0 0 0 0 0 0 0 0
0 0 1 1 0 0 0 0 0 0 1 1 1 1 0 1 1 3 3 3 1 0 0 0 0 0 0 0 0 0 0 0 0 0 0 0 0 0 0 0 0 0 0
0 0 0 0 0 0 0 0 0 0 0 1 2 1 0 1 2 2 2 2 1 1 1 0 0 0 0 0 0 0 0 0 0 0 0 0 0 0 0 0 0 0 0
0 0 0 0 0 0 0 0 0 0 0 1 1 0 0 1 1 1 1 1 1 1 1 0 0 0 0 0 0 0 0 0 0 0 0 0 0 0 0 0 0 0 0
0 0 0 0 0 0 0 0 0 0 0 0 0 0 0 0 0 0 0 0 0 1 1 0 0 0 0 0 0 0 0 0 0 0 0 0 0 0 0 0 0 0 0
0 0 0 0 0 0 0 0 0 0 0 0 0 0 0 0 0 0 0 0 0 0 0 0 0 0 0 0 0 0 0 0 0 0 0 0 0 0 0 0 0 0 0
Wind_Speed
5 6 8 9 9 9 10 11 10 9 8 6 6 6 6 5 4 5 6 7 6 7 6 4 4 4 4 4 4 3 3 2 2 2 2 2 1 1 2 2 2 3 4
3 6 8 9 10 10 10 10 11 11 10 8 6 5 5 4 4 4 5 7 7 7 7 6 5 5 4 4 4 3 3 2 1 2 2 1 2 2 1 2 3 4 3
6 6 8 9 9 10 11 10 11 11 11 9 6 4 3 3 3 3 4 5 7 7 6 7 6 5 5 4 4 4 5 3 1 1 3 3 2 2 2 2 2 3 3
5 6 7 8 8 9 8 8 9 9 10 10 9 9 7 6 5 4 4 5 6 7 7 7 6 6 5 5 5 4 3 4 3 1 1 1 3 2 1 2 1 2 3
6 6 7 7 6 6 7 7 7 8 8 9 11 10 7 5 4 4 6 6 5 6 7 7 6 6 5 5 5 5 4 3 4 3 2 2 1 1 2 1 2 2 2
5 5 5 5 5 5 5 6 7 7 8 9 9 9 9 7 7 6 6 5 4 4 6 6 6 6 5 5 5 5 5 4 4 3 3 3 3 3 3 2 2 2 2
4 5 5 5 5 6 6 6 7 7 9 9 9 9 9 9 9 8 7 6 4 4 6 6 6 5 5 5 5 5 5 5 5 4 3 3 3 3 3 2 2 1 2
4 5 5 5 6 6 6 6 7 7 8 9 9 8 8 6 6 7 6 7 6 5 6 7 7 6 6 6 5 4 4 4 4 5 4 3 3 3 3 3 3 1 1
4 4 4 4 5 5 5 6 6 6 6 7 7 7 8 7 7 6 6 5 4 5 7 7 7 6 6 6 6 4 5 5 5 4 4 3 3 3 3 3 3 3 2
4 4 4 4 4 4 4 4 5 5 5 5 6 6 7 7 7 6 7 6 6 5 6 6 6 6 6 6 5 4 5 5 4 4 4 4 3 3 2 3 2 3 3
3 3 3 3 3 3 3 3 4 5 4 5 5 6 6 7 7 7 7 6 6 6 7 7 7 6 6 6 5 5 5 6 5 4 5 5 4 3 3 2 3 3 3
3 3 3 3 3 3 3 3 4 4 4 5 5 6 6 6 7 6 6 6 6 6 6 6 6 6 6 6 6 6 6 6 6 5 5 5 4 4 3 3 3 3 4
4 4 3 3 3 3 3 3 4 4 3 3 4 4 5 6 6 6 6 6 6 6 5 5 6 5 5 5 5 5 5 5 5 5 5 5 4 4 3 3 3 3 3
4 4 3 2 2 2 3 3 3 3 4 4 4 4 4 5 5 5 5 5 6 6 6 5 6 5 5 5 5 5 4 4 3 3 4 4 4 4 4 4 4 3 3
3 3 2 2 2 3 3 3 3 3 4 5 5 4 4 4 5 4 4 4 4 5 5 4 4 4 4 4 5 5 4 3 2 2 2 3 3 3 3 3 3 3 3
2 2 2 2 2 2 2 3 3 3 4 5 5 4 5 5 5 5 4 4 4 3 4 4 4 3 3 5 7 5 4 3 3 2 2 2 1 1 2 2 3 3 3
2 2 1 1 2 2 2 3 3 4 4 4 5 5 5 5 4 5 5 5 4 4 5 4 5 4 3 4 6 6 4 3 3 2 2 1 1 1 0 0 1 2 1
2 2 2 2 1 2 2 3 4 4 4 4 4 5 5 5 5 5 5 5 5 5 5 5 5 5 5 5 5 6 4 3 2 2 2 1 1 1 1 2 3 2 2
2 2 2 2 2 2 3 4 4 4 4 4 4 4 5 6 6 6 5 5 6 6 5 5 6 6 5 6 5 5 4 4 3 3 3 2 2 2 3 3 3 3 3
3 4 4 4 3 2 3 5 4 4 4 4 4 5 5 6 6 6 5 5 6 6 6 7 6 6 5 7 6 5 4 4 4 4 4 6 5 5 5 4 3 3 3
4 5 5 4 3 2 4 5 4 3 3 4 5 5 6 6 6 6 6 6 7 8 7 7 7 7 7 8 9 7 4 4 5 4 4 5 9 9 9 7 5 4 3
5 5 6 5 4 3 5 6 4 3 4 5 6 6 6 6 6 7 7 7 7 8 7 7 7 6 7 8 9 10 9 7 6 5 4 5 10 11 10 7 7 7 6
5 5 7 7 6 5 5 6 3 4 6 7 6 6 7 7 6 7 7 7 6 6 6 6 6 5 5 6 11 11 11 10 7 7 10 10 10 10 9 11 10 7 5
6 6 8 8 7 7 7 6 5 6 8 8 7 7 9 9 9 7 6 6 5 6 6 6 6 5 5 5 5 5 6 9 8 7 9 11 12 10 9 8 7 6 5
6 7 8 8 8 8 8 7 6 7 10 9 9 9 9 10 10 10 8 8 6 5 6 6 5 5 5 5 7 6 5 5 5 6 6 7 6 7 7 6 6 6 5
7 8 9 9 9 9 9 7 6 7 10 9 8 7 7 8 9 10 11 17 14 16 15 11 9 8 8 9 12 12 12 10 9 8 7 6 6 6 6 5 5 5 6
Wind_Direction
183 161 164 166 165 171 176 178 176 175 170 169 176 177 181 181 184 184 179 176 176 175 172 171 161 160 160 161 147 127 114 103 114 95 58 19 2 262 238 230 229 232 230
168 166 164 169 172 174 176 181 179 178 177 180 180 172 164 173 181 177 174 177 177 177 181 170 167 165 153 151 153 140 127 114 120 125 107 35 350 329 264 235 228 235 232
181 176 173 176 172 176 181 187 185 180 179 173 159 146 129 123 152 168 175 183 181 180 176 172 166 167 165 170 170 158 147 147 131 129 140 149 215 291 315 275 245 236 229
173 172 172 173 177 180 181 187 184 182 179 172 170 169 173 177 182 178 176 178 183 180 174 170 168 168 170 172 177 169 156 146 154 139 111 144 154 158 301 317 293 256 237
171 174 174 174 171 167 173 181 177 179 178 178 178 178 179 177 164 163 170 178 182 180 175 171 169 171 174 176 170 161 161 157 158 159 150 131 105 128 156 260 306 300 258
161 158 150 148 151 153 166 171 174 179 175 179 181 181 179 170 163 169 174 178 177 177 176 171 172 174 174 178 176 169 168 168 159 158 159 160 162 179 171 196 242 269 283
147 148 147 152 159 166 173 174 176 186 184 183 187 187 183 177 179 178 179 177 177 184 184 178 176 176 178 177 170 168 174 173 168 172 176 181 183 163 160 165 195 247 288
150 155 159 164 169 173 175 177 180 185 185 188 190 186 183 182 186 184 180 185 189 190 181 179 180 180 177 176 170 170 180 175 179 186 178 182 193 182 176 171 160 179 289
156 154 156 164 165 168 178 181 182 185 185 188 189 187 185 185 186 182 180 184 185 184 179 179 180 181 178 176 171 177 184 177 184 188 188 191 198 195 195 184 173 167 203
148 155 163 166 159 160 167 171 174 181 185 182 187 189 190 187 184 179 184 186 186 180 175 177 177 179 178 176 174 177 184 182 188 188 191 198 197 196 193 194 192 187 187
153 146 145 134 127 132 145 156 164 166 174 183 187 185 188 185 181 184 187 186 181 172 177 178 176 177 180 179 178 188 186 191 195 193 195 205 191 190 192 190 191 193 187
136 127 121 114 115 120 129 142 151 161 173 181 188 188 182 175 176 181 182 179 178 174 176 175 175 181 184 181 184 197 194 195 198 199 195 206 194 194 193 194 202 204 201
131 120 113 119 127 134 141 142 150 158 155 158 161 164 170 169 174 176 175 172 170 169 171 175 181 186 184 185 191 196 196 200 202 198 198 203 189 202 201 203 208 211 205
133 125 126 123 123 124 127 131 137 140 137 134 133 144 157 159 159 160 161 164 164 166 175 183 184 185 183 185 185 184 191 197 199 196 200 201 198 207 204 206 212 207 203
125 132 141 127 121 121 126 129 130 135 132 127 128 135 131 127 127 131 137 145 154 164 164 165 169 171 177 187 176 175 178 180 185 188 195 193 191 200 199 203 204 196 200
138 136 127 121 127 135 136 126 125 131 122 122 121 116 118 120 123 126 126 125 127 130 136 146 149 160 184 171 163 161 157 162 174 183 192 185 189 227 219 218 193 182 193
127 131 122 113 122 134 135 133 134 124 121 123 120 122 122 120 121 126 120 122 121 110 102 101 108 107 109 133 143 148 150 156 167 167 161 148 70 86 79 139 108 96 79
109 115 107 90 81 93 108 114 114 116 122 123 123 124 127 128 123 115 115 111 101 101 95 90 94 90 69 82 111 122 127 120 108 109 128 132 60 58 130 117 90 67 39
103 104 95 88 84 92 105 110 110 115 118 124 124 124 127 125 121 115 108 103 100 91 82 78 80 78 58 58 87 115 118 102 83 66 63 88 84 50 102 112 100 70 41
87 86 80 79 82 77 98 108 114 117 129 138 135 129 127 125 125 123 113 101 99 97 89 75 67 68 57 48 62 93 103 101 86 62 51 55 67 65 80 97 92 68 23
76 84 79 71 63 77 104 105 102 111 120 114 112 111 114 117 116 109 103 103 101 95 86 79 66 59 53 51 56 67 85 97 90 76 61 55 64 67 68 74 75 70 57
68 78 83 69 54 71 101 100 96 94 91 91 93 98 101 105 105 105 100 98 100 96 89 81 69 52 47 51 60 67 71 82 87 81 73 70 70 68 66 66 62 62 61
70 73 85 75 59 59 81 91 79 87 93 90 89 90 90 87 90 100 103 98 95 97 96 91 81 62 47 46 56 66 71 75 81 78 74 70 68 68 64 56 55 55 56
77 75 80 77 64 58 65 73 76 84 90 90 86 89 91 86 78 76 80 89 95 103 102 96 89 77 59 46 45 58 68 71 75 72 67 66 63 62 58 51 47 48 49
77 75 79 79 68 66 64 61 71 89 91 88 88 86 87 90 83 74 63 72 61 83 103 101 97 91 74 48 61 74 70 71 76 79 64 56 52 50 46 44 41 38 37
82 78 75 75 70 67 63 57 64 88 97 93 89 91 94 94 95 95 79 60 70 71 73 79 88 78 84 82 75 73 72 72 80 79 69 61 55 51 45 40 36 32 27